www.pogodaiklimat.ru

Погода и климат >> Архив погоды >> Россия >> Якутия >> Суон-Тит


ПОГОДА в Суон-Тите

  • Прогноз погоды в Суон-Тите
  • Монитор погоды в Суон-Тите

АРХИВ ПОГОДЫ в Суон-Тите

Время (UTC), дата Ветер
(напр.,м/с)
 
Видим.   Явления Облачность Т
(С)
Тd
(С)
f
(%)
Тe
(С)
Тes
(С)
Комфортность P
(гПа)
Po
(гПа)
Тmin
(С)
Tmax
(С)
R
(мм)
R24
(мм)
S
(см)
18 16.07 штиль 0 50 км ясно +13.2 +11.9 92 +13 +13 1012.4 963.8
00 17.07 штиль 0 50 км ясно +16.7 +14.3 86 +17 +27 1012.4 964.3 +12.0
06 17.07 Ю 2 50 км ясно +27.1 +15.5 49 +30 +41 душно 1009.0 962.8
12 17.07 штиль 0 50 км 3/0
[Ci fib]
+17.7 +11.5 67 +18 +18 1006.5 958.8 +28.2
18 17.07 штиль 0 50 км ясно +6.5 +4.9 90 +6 +6 1008.9 959.2
00 18.07 Ю 2 50 км ясно +15.7 +10.0 69 +16 +23 1004.6 956.6 +4.2
06 18.07 Ю 4 50 км 10/6 600 м
[Cb cap Ci sp]
+27.0 +13.9 45 +29 +32 жарко 1000.4 954.5
12 18.07 Ю 1 50 км {ливн. осадки} 10/10 600 м
[Cb cap]
+19.2 +16.6 85 +22 +22 комфорт 1004.8 957.5 +27.0 0.3
18 18.07 штиль 0 50 км {ливн. осадки} 10/10 600 м
[Cb cap]
+15.0 +13.9 93 +15 +15 1007.1 959.0
00 19.07 штиль 0 50 км 1/1 600 м
[Cb cap]
+14.9 +9.9 72 +15 +23 1010.4 962.0 +4.4 0.9
06 19.07 штиль 0 50 км 10/6 600 м
[Cb cap]
+19.1 +9.7 54 +20 +23 1010.1 962.4
12 19.07 Ю 2 20 км 3/3 1000 м
[Sc]
+14.3 +5.9 57 +14 +14 1013.1 964.5 +24.4
18 19.07 штиль 0 50 км ясно +3.9 +1.6 85 +3 +3 1016.8 966.3
00 20.07 СЗ 1 50 км 10/0
[Cc]
+12.3 +5.4 63 +12 +19 1016.8 967.6 +0.7
03 20.07 С 3 50 км 10/0
[Ac trans Ci fib]
+27.8 +6.0 25 +27 +35 жарко 1014.3 966.2
06 20.07 СЗ 4 50 км 6/3 1000 м
[Cu hum Ci fib]
+19.6 +7.5 45 +20 +25 1013.2 965.3
09 20.07 СЗ 4 50 км 9/0
[As trans Cc]
+18.3 +7.0 48 +18 +20 1013.4 965.3
12 20.07 С 2 50 км 6/0
[Ci fib]
+15.9 +2.6 41 +16 +16 1014.7 966.3 +20.9
15 20.07 СЗ 2 50 км 6/0
[Ci fib]
+13.1 +4.9 57 +13 +13 1016.2 967.2
18 20.07 С 2 50 км 8/0
[Ci fib]
+7.8 +4.1 77 +6 +6 1017.1 967.2
21 20.07 СЗ 2 50 км 8/0
[Ci fib]
+8.2 +3.3 71 +6 +7 1017.7 967.8
00 21.07 СЗ 2 50 км 8/0
[As trans Ci fib]
+12.2 +4.8 61 +11 +17 1016.8 967.6 +6.2
03 21.07 СЗ 3 50 км 8/0
[Ci fib]
+18.8 +6.8 46 +19 +29 1013.8 965.9
06 21.07 З 3 50 км 9/0
[Cc]
+22.4 +9.2 43 +24 +31 комфорт 1011.6 964.3
09 21.07 С 4 50 км 6/0
[Ci fib]
+22.7 +5.4 33 +23 +25 комфорт 1010.6 963.5
12 21.07 С 4 50 км 6/0
[Ci fib]
+18.9 +5.7 42 +19 +19 1011.6 963.8 +23.2
15 21.07 штиль 0 50 км ясно +10.8 +4.6 66 +10 +10 1013.2 964.0
18 21.07 штиль 0 50 км 1/0
[Ac trans]
+5.3 +4.1 92 +4 +4 1014.0 963.2
21 21.07 штиль 0 50 км 6/0
[Cc]
+3.9 +3.2 95 +3 +4 1013.7 963.1
00 22.07 С 2 50 км 8/0
[Ac trans Ci fib]
+15.3 +6.5 56 +15 +20 1010.9 962.5 +3.1
03 22.07 СЗ 2 50 км 10/0
[Ac trans Cc]
+20.3 +8.0 45 +22 +30 комфорт 1008.5 961.1
06 22.07 З 2 50 км 10/0
[Ac trans Cc]
+23.8 +7.8 36 +24 +32 комфорт 1006.6 959.8
09 22.07 С 4 50 км 8/0
[Ac trans Cc]
+24.3 +6.9 33 +24 +26 комфорт 1005.8 959.0
12 22.07 С 2 50 км 6/0
[Ci fib]
+20.7 +8.1 44 +23 +23 комфорт 1006.8 959.5 +23.8
15 22.07 штиль 0 50 км ясно +8.8 +6.0 83 +8 +8 1009.9 960.6
18 22.07 штиль 0 50 км ясно +4.2 +2.7 90 +3 +3 1011.5 961.3
21 22.07 штиль 0 50 км ясно +2.9 +1.6 91 +2 +3 1013.1 962.7
00 23.07 штиль 0 50 км ясно +14.7 +8.6 67 +15 +24 1011.0 962.6 +2.3
03 23.07 С 3 50 км 1/1 1000 м
[Cu hum]
+23.5 +7.8 37 +24 +34 комфорт 1008.1 961.2
06 23.07 С 3 50 км ясно +26.1 +7.3 30 +26 +35 жарко 1007.3 960.8
09 23.07 С 2 50 км ясно +25.4 +3.9 25 +25 +28 комфорт 1007.7 961.1
12 23.07 СЗ 1 50 км ясно +19.1 +5.7 41 +21 +21 комфорт 1009.3 961.6 +26.9

 

Местоположение метеостанции Суон-Тит (Якутия, Россия): широта 58.07 долгота 123.71 высота над уровнем моря 405 м.

В архиве по умолчанию представлена погода в Суон-Тите за последнюю неделю. Архивные данные за месяц целиком и за предыдущие месяцы, начиная с января 2011 года, Вы можете получить, выбрав интересующий диапазон дат из раскрывающегося списка и нажав кнопку "Ввод!".


*Определитесь, кто Вы:
робот инопланетянин человек

Внимание! Время в таблицах - всемирное. Для получения местного времени необходимо прибавить поправку, которая равна 9 ч.

Смотрите также архив погоды в соседних городах и на ближайших метеорологических станциях:

Погода в Алдане (Якутия, Россия) (110 км)
Погода в Канкунском (Якутия, Россия) (138 км)
Погода в Нерюнгри (Якутия, Россия) (154 км)
Погода в Джикимде (Якутия, Россия) (157 км)
Погода в Томмоте (Якутия, Россия) (176 км)
Погода в Усть-Нюкже (Амурская область, Россия) (212 км)
Погода в Нагорном (Якутия, Россия) (243 км)
Погода в Тяне (Якутия, Россия) (249 км)
Погода в Буяге (Якутия, Россия) (260 км)
Погода в Лопче (Амурская область, Россия) (263 км)

Пояснения к столбцам:

Ветер - указаны скорость ветра в м/с - средняя за 10 мин, порывы в срок и между сроками (в фигурных скобках) и направление, откуда дует ветер: С - северный, СВ - северо-восточный, В - восточный, ЮВ - юго-восточный, Ю - южный, ЮЗ - юго-западный, З - западный, СЗ - северо-западный.
Видимость - горизонтальная дальность видимости в метрах или километрах. При видимости от 1 до 10 км при отсутствии осадков обычно наблюдается дымка, при ухудшении видимости до 1 км и менее - туман. В сухую погоду видимость может ухудшаться дымом, пылью или мглою.
Явления - указаны атмосферные явления, наблюдавшиеся в срок или в последний час перед сроком; фигурными скобками обозначены явления, наблюдавшиеся между сроками (за 1-3 часа до срока); квадратными скобками обозначены град или гололедные отложения с указанием их диаметра в мм.
Облачность - указаны через наклонную черту общая и нижняя облачность в баллах и высота нижней границы облаков в метрах; квадратными скобками обозначены формы облаков: Ci - перистые, Cs - перисто-слоистые, Cc - перисто-кучевые, Ac - высококучевые, As - высокослоистые, Sc - слоисто-кучевые, Ns - слоисто-дождевые, Cu - кучевые, Cb - кучево-дождевые. Подробнее классификацию облаков см. в Атласе облаков (PDF).
T - Температура воздуха - температура, измеренная на высоте 2 м над землей.
Td - Температура точки росы - температура, при понижении до которой содержащийся в воздухе водяной пар достигнет насыщения.
f - Относительная влажность воздуха - влажноcть воздуха, измеренная на высоте 2 м над землей.
Te - Эффективная температура - температура, которую ощущает одетый по сезону человек в тени. Характеристика душности погоды. При расчете учитывается влияние влажности воздуха и скорости ветра на теплоощущения человека.
Tes - Эффективная температура на солнце - температура, которую ощущает человек, с поправкой на солнечный нагрев. Характеристика знойности погоды. Зависит от высоты солнца над горизонтом, облачности и скорости ветра. Ночью, в пасмурную погоду, а также при ветре 12 м/с и более поправка равна нулю.
P - Атмосферное давление - приведенное к уровню моря атмосферное давление.
Po - Атмосферное давление - измеренное на уровне метеостанции атмосферное давление.
Tmin - Минимальная температура - минимум температуры воздуха на высоте 2 м над землей.
Tmax - Максимальная температура - максимум температуры воздуха на высоте 2 м над землей.
R - Количество осадков - Количество выпавших осадков за период времени, мм. При наведении курсора мыши на число - период времени, за который выпало указанное количество осадков.
R24 - Количество осадков - Количество выпавших осадков за 24 часа, мм.
S - Снежный покров - Высота снежного покрова, см. При наведении курсора мыши на число - состояние снежного покрова и степень покрытия местности в баллах.